Torna al catalogo

STARLINK-3129

AttivoComunicazioniVLEO
NORAD 49453·PAYLOAD·🇺🇸 United States

Lanciato Nov 13, 2021 da Cape Canaveral Space Force Station

Loading…

Prossimi Passaggi (prossime 24 ore)

TLE

AggiornatoSource: CelesTrak SupGP

Epoca: Sep 14, 2026, 21:48 UTC

1 49453C 21104AX  26257.90881944  .00043808  00000+0  14090-2 0  2573
2 49453  53.1584  74.9616 0001151  80.9809 257.7573 15.31673431    19

Traccia STARLINK-3129 in tempo reale con AllMySat

Download on the App Store